{"data":{"norad_id":64441,"epoch":"2026-09-20T08:40:33.194784Z","epoch_age_seconds":146112,"freshness":"FRESH","line1":"1 64441U 25130D   26263.36149531  .00013177  00000+0  40039-3 0  9998","line2":"2 64441  53.1569 260.3787 0001200  90.7477 269.3663 15.34403723 70565","mean_motion":15.34403723,"eccentricity":0.00012,"inclination_deg":53.1569,"raan_deg":260.3787,"arg_perigee_deg":90.7477,"mean_anomaly_deg":269.3663,"bstar":0.00040039,"rev_number":7056,"period_min":93.847530373856,"perigee_km":461.87127518793,"apogee_km":463.51307418985,"semimajor_km":6840.8291746889,"source":"CELESTRAK","updated_at":"2026-09-21T09:00:35.352528Z"}}